Total_Precipitation_Accumulation
1.95 2.12 2.12 2.22 2.15 2.30 2.25 2.05 1.79 1.70 1.57 1.34 1.26 1.28 1.24 1.21 1.26 1.37 1.55 1.62 1.60 1.80 2.13 2.31 2.21 2.08 2.06 2.06 2.08 2.07 2.02 1.95 1.86 1.67 1.52 1.38 1.30 1.31 1.35 1.41 1.35 1.26 1.23
2.32 2.41 2.45 2.50 2.37 2.41 2.46 2.34 2.05 1.90 1.77 1.59 1.40 1.31 1.30 1.45 1.44 1.39 1.59 1.71 1.64 1.65 1.93 2.31 2.49 2.60 2.67 2.68 2.52 2.27 2.19 2.13 2.12 1.98 1.79 1.60 1.49 1.45 1.42 1.48 1.50 1.41 1.37
2.66 2.69 2.84 2.87 2.76 2.71 2.66 2.57 2.41 2.16 2.03 1.94 1.83 1.66 1.53 1.54 1.65 1.72 1.75 1.85 1.90 1.84 1.96 2.20 2.46 2.64 2.79 2.93 2.80 2.58 2.42 2.34 2.34 2.29 2.13 1.92 1.76 1.66 1.64 1.60 1.58 1.54 1.43
3.04 3.19 3.13 2.99 2.90 2.80 2.77 2.89 2.73 2.46 2.36 2.38 2.25 1.95 1.68 1.70 1.80 1.87 1.86 1.93 2.07 2.00 2.04 2.03 2.15 2.36 2.58 2.81 2.89 2.91 2.82 2.74 2.63 2.53 2.42 2.31 2.17 2.03 1.93 1.91 1.80 1.68 1.56
3.37 3.51 3.45 3.24 3.02 2.92 2.94 2.80 2.83 2.73 2.74 2.66 2.26 2.01 1.74 1.70 1.78 1.80 1.83 1.91 2.09 2.18 2.21 2.05 2.13 2.37 2.55 2.78 2.98 3.15 3.22 3.18 3.02 2.91 2.79 2.70 2.63 2.43 2.24 2.14 2.02 1.93 1.82
3.82 3.82 3.70 3.54 3.37 3.23 3.16 3.03 2.98 2.95 2.81 2.66 2.23 2.00 1.80 1.65 1.66 1.72 1.75 1.84 1.90 1.94 2.03 2.07 2.13 2.09 2.27 2.53 2.81 3.10 3.34 3.49 3.35 3.12 2.96 2.91 2.85 2.72 2.59 2.43 2.29 2.20 2.11
4.24 4.18 4.08 3.92 3.72 3.47 3.28 3.12 2.96 2.83 2.64 2.52 2.37 2.15 1.83 1.59 1.61 1.64 1.60 1.67 1.76 1.75 1.80 1.87 2.04 1.99 1.93 2.17 2.30 2.67 3.06 3.45 3.55 3.41 3.27 3.23 3.17 3.01 2.81 2.63 2.50 2.42 2.32
4.72 4.57 4.48 4.25 3.96 3.70 3.43 3.19 2.95 2.72 2.52 2.41 2.40 2.46 2.19 1.88 1.53 1.33 1.35 1.39 1.45 1.48 1.56 1.66 1.69 1.72 1.72 1.83 1.88 2.10 2.42 2.73 3.06 3.21 3.23 3.22 3.20 3.13 2.99 2.81 2.66 2.60 2.64
4.80 4.46 4.21 4.12 3.87 3.50 3.28 3.12 2.92 2.71 2.49 2.34 2.27 2.43 2.35 2.10 1.74 1.52 1.34 1.25 1.28 1.37 1.43 1.53 1.55 1.49 1.46 1.50 1.58 1.73 1.85 1.95 2.30 2.64 2.85 2.88 2.87 2.86 2.87 2.88 2.85 2.74 2.67
4.48 4.17 3.87 3.57 3.31 3.04 2.81 2.66 2.58 2.54 2.46 2.31 2.25 2.09 1.92 1.78 1.81 1.67 1.48 1.38 1.35 1.36 1.33 1.29 1.32 1.34 1.33 1.35 1.44 1.52 1.58 1.67 1.91 2.10 2.29 2.41 2.45 2.50 2.52 2.52 2.56 2.57 2.60
3.81 3.45 3.14 2.84 2.60 2.37 2.19 2.02 2.01 2.14 2.22 2.20 2.19 2.16 2.03 1.88 1.80 1.70 1.61 1.57 1.54 1.49 1.38 1.29 1.24 1.21 1.20 1.21 1.26 1.40 1.50 1.48 1.55 1.66 1.80 1.92 2.00 2.14 2.26 2.30 2.31 2.40 2.54
3.10 2.76 2.44 2.19 1.96 1.75 1.62 1.56 1.55 1.60 1.75 1.87 1.93 1.96 1.96 2.02 2.00 1.91 1.81 1.75 1.72 1.64 1.51 1.40 1.31 1.27 1.24 1.24 1.32 1.51 1.41 1.45 1.48 1.46 1.46 1.54 1.62 1.73 1.91 2.08 2.22 2.36 2.54
2.20 1.96 1.73 1.57 1.42 1.33 1.29 1.28 1.29 1.36 1.41 1.49 1.61 1.72 1.78 1.81 1.83 1.93 2.02 1.93 1.79 1.60 1.46 1.40 1.35 1.30 1.27 1.26 1.28 1.32 1.18 1.19 1.24 1.26 1.29 1.34 1.40 1.49 1.57 1.69 1.82 1.96 2.12
1.37 1.23 1.14 1.06 1.02 1.01 0.97 0.98 1.01 1.08 1.14 1.18 1.24 1.40 1.55 1.54 1.48 1.57 1.78 1.81 1.77 1.64 1.42 1.35 1.28 1.24 1.21 1.15 1.19 1.14 1.03 1.11 1.08 1.05 1.01 1.01 1.05 1.12 1.23 1.31 1.41 1.50 1.60
1.01 0.92 0.89 0.86 0.82 0.84 0.82 0.80 0.78 0.79 0.86 0.95 0.99 1.09 1.21 1.25 1.21 1.24 1.35 1.49 1.60 1.62 1.43 1.22 1.16 1.14 1.11 1.07 1.14 0.92 0.93 1.01 0.97 0.93 0.89 0.85 0.86 0.87 0.92 0.96 1.01 1.07 1.19
0.83 0.75 0.67 0.63 0.60 0.59 0.63 0.70 0.70 0.66 0.69 0.73 0.77 0.84 0.91 0.93 0.97 1.01 1.08 1.19 1.34 1.47 1.45 1.14 1.00 0.98 0.97 0.90 0.99 0.87 0.89 0.87 0.78 0.75 0.72 0.70 0.68 0.69 0.69 0.73 0.75 0.78 0.87
0.58 0.54 0.50 0.48 0.46 0.45 0.50 0.59 0.64 0.62 0.63 0.63 0.63 0.65 0.70 0.74 0.83 0.83 0.86 0.93 1.06 1.23 1.34 1.16 0.98 0.91 0.90 0.93 0.94 0.91 0.79 0.67 0.62 0.63 0.60 0.61 0.59 0.57 0.58 0.58 0.60 0.63 0.65
0.49 0.47 0.46 0.43 0.39 0.40 0.47 0.52 0.54 0.52 0.56 0.58 0.58 0.57 0.59 0.65 0.74 0.76 0.79 0.83 0.91 1.05 1.17 1.19 1.05 0.92 0.86 0.87 0.89 0.87 0.68 0.54 0.51 0.54 0.51 0.49 0.50 0.50 0.52 0.52 0.52 0.52 0.49
0.48 0.46 0.46 0.44 0.41 0.39 0.40 0.42 0.42 0.47 0.51 0.53 0.51 0.50 0.53 0.58 0.64 0.68 0.74 0.77 0.83 0.87 0.99 1.03 0.92 0.83 0.74 0.70 0.82 0.87 0.79 0.72 0.48 0.40 0.40 0.39 0.41 0.40 0.39 0.39 0.39 0.41 0.37
0.49 0.45 0.43 0.41 0.39 0.34 0.35 0.38 0.36 0.40 0.48 0.46 0.42 0.43 0.47 0.48 0.52 0.59 0.64 0.74 0.83 0.91 0.95 0.94 0.85 0.75 0.71 0.71 0.87 0.98 0.90 0.76 0.61 0.39 0.39 0.37 0.35 0.35 0.37 0.38 0.34 0.35 0.36
0.47 0.45 0.42 0.41 0.38 0.34 0.33 0.35 0.33 0.34 0.44 0.43 0.42 0.41 0.40 0.39 0.41 0.47 0.53 0.62 0.76 0.92 0.98 1.02 0.94 0.81 0.77 0.88 0.95 0.91 0.87 0.74 0.61 0.48 0.50 0.47 0.49 0.63 0.81 0.86 0.64 0.43 0.38
0.44 0.44 0.46 0.43 0.37 0.34 0.38 0.38 0.30 0.34 0.40 0.44 0.46 0.42 0.38 0.35 0.33 0.34 0.38 0.45 0.59 0.76 0.93 1.05 1.01 0.94 0.87 0.95 1.02 0.97 1.01 0.96 0.85 0.61 0.63 0.60 0.64 1.00 1.38 1.56 1.14 0.61 0.48
0.47 0.46 0.46 0.45 0.42 0.38 0.38 0.34 0.27 0.32 0.40 0.49 0.54 0.51 0.41 0.36 0.41 0.44 0.41 0.38 0.45 0.55 0.77 1.02 1.14 1.06 0.99 1.06 1.18 1.16 1.14 1.12 1.02 0.81 0.86 0.87 0.85 1.11 1.19 1.29 1.23 0.83 0.68
0.50 0.54 0.52 0.47 0.49 0.45 0.41 0.36 0.34 0.39 0.41 0.47 0.51 0.50 0.54 0.54 0.47 0.45 0.41 0.45 0.55 0.64 0.72 0.81 1.00 1.02 0.90 0.92 1.07 1.10 1.08 1.05 0.98 0.91 0.98 1.07 0.97 1.06 1.00 1.26 1.46 1.28 1.09
0.56 0.59 0.56 0.56 0.60 0.58 0.50 0.45 0.47 0.49 0.45 0.45 0.43 0.42 0.47 0.51 0.44 0.42 0.46 0.56 0.64 0.69 0.60 0.70 0.80 0.90 0.95 0.88 0.86 0.92 1.09 1.22 1.21 0.99 0.93 1.04 1.08 1.11 1.18 1.44 1.50 1.49 1.39
0.59 0.59 0.60 0.61 0.60 0.56 0.44 0.39 0.42 0.45 0.45 0.43 0.45 0.46 0.44 0.40 0.39 0.40 0.46 0.60 0.70 0.71 0.77 0.93 1.11 1.21 1.18 1.08 0.92 0.97 1.20 1.34 1.35 1.23 0.95 1.01 1.12 1.24 1.50 1.61 1.54 1.42 1.39